Starlink 35910

operational
NORAD ID: 67184 Int'l Des: 2025-303 Owner: SPXS Country: US Constellation: starlink
LEOCIRCULAR

About Starlink 35910

Description loading...

Live Position

Loading 3D Globe...

Upcoming Passes

Altitude History

Altitude vs Time

uPlot chart will show altitude changes over time

Two-Line Element Set

1 67184C 25303X 25352.76854167 .00683200 00000+0 10019-2 0 3524
2 67184 43.0052 61.7769 0007433 284.1119 270.9205 16.03347634 14
Epoch: Dec 18, 2025 • Age: 45 hours

Current Status

Altitude 263.2 km
Velocity 7.75 km/s
Sub-Earth Point -10.86°S, 162.43°W
Launch Date Dec 17, 2025
Age 2 days
Type internet

Technical Details

Classification Payload
Mass 575.00 kg
Dry Mass 530.00 kg
Total Mass 575.00 kg
Length 0.30 m
Diameter 4.10 m
Span 29.00 m
Shape Box + pan
Manufacturer SPXS
Bus Type Starlink V2MO
Phase Status In Orbit
Owner/State SPXS/US

Large Constellations

Loading constellations...